STARLINK-35355

Last updated on Fri Dec 12 2025 00:02:05 GMT+0000 (Coordinated Universal Time)

1 66448U 25259AC 25345.52486847 .00172055 00000+0 27883-2 0 9993 2 66448 43.0010 54.3241 0005456 293.1921 66.8365 15.51423561 5983
UTC large
Height (km)
Speed (km/s)
/
Latitude / Longitude
Inclination (degrees)
Orbital Period (minutes)
Azimuth
Elevation
Range (km)
Doppler Factor

Next 0 passes for location: London (51.5072 / 0.1276)

Sorry there are no passes over London.